CDT,Max TemperatureF,Mean TemperatureF,Min TemperatureF,Max Dew PointF,MeanDew PointF,Min DewpointF,Max Humidity, Mean Humidity, Min Humidity, Max Sea Level PressureIn, Mean Sea Level PressureIn, Min Sea Level PressureIn, Max VisibilityMiles, Mean VisibilityMiles, Min VisibilityMiles, Max Wind SpeedMPH, Mean Wind SpeedMPH, Max Gust SpeedMPH,PrecipitationIn, CloudCover, Events, WindDirDegrees
2013-4-1,28,22,14,18,14,10,86,70,55,30.30,30.27,30.25,10,10,10,12,9,,0.00,0,,293
2013-4-2,26,17,8,18,13,5,93,76,59,30.38,30.33,30.25,10,10,10,10,6,,0.00,0,,329
2013-4-3,35,27,19,32,24,16,100,85,70,30.30,30.06,29.88,10,10,7,31,15,38,0.00,1,,189
2013-4-4,33,25,17,27,20,14,93,76,69,30.30,30.20,29.99,10,10,10,21,14,29,0.00,1,,340
2013-4-5,32,23,14,30,21,12,100,89,69,30.29,30.10,29.85,10,9,0,18,8,23,0.00,2,Rain-Snow,129
2013-4-6,33,30,28,32,29,27,100,92,80,29.86,29.77,29.70,10,10,9,20,9,25,0.00,7,Rain,27
2013-4-7,32,31,30,32,29,27,100,91,80,29.90,29.86,29.83,10,9,0,12,7,,0.00,8,Rain-Snow,29
2013-4-8,30,22,14,30,16,7,100,81,63,30.34,30.06,29.86,10,10,10,29,18,36,0.00,4,,355
2013-4-9,26,18,10,18,10,3,93,70,55,30.45,30.37,30.32,10,10,10,23,14,30,0.00,0,,346
2013-4-10,32,24,17,25,19,14,93,79,64,30.40,30.25,30.10,10,10,10,16,9,18,0.00,1,,350
2013-4-11,32,28,24,28,22,19,100,79,60,30.10,29.99,29.95,10,8,1,17,11,21,0.00,4,Rain-Snow,57
2013-4-12,32,29,26,28,27,25,100,93,80,29.94,29.92,29.90,10,6,1,16,12,21,0.00,7,Rain-Snow,16
2013-4-13,32,26,19,28,24,19,100,88,69,29.96,29.92,29.90,10,10,2,10,6,,0.00,3,Snow,43
2013-4-14,37,30,23,32,25,19,100,79,60,29.96,29.81,29.65,10,9,1,25,11,37,0.00,1,Rain-Snow,59
2013-4-15,32,31,30,32,32,30,100,100,93,29.97,29.69,29.54,10,3,0,29,20,36,0.00,8,Rain-Snow,4
2013-4-16,32,30,28,32,27,23,100,87,75,30.39,30.21,29.97,10,10,3,18,12,23,0.00,7,Rain-Snow,344
2013-4-17,33,30,28,28,26,23,93,83,69,30.39,30.28,30.16,10,10,10,13,7,,0.00,5,,346
2013-4-18,37,32,28,28,26,21,100,78,60,30.16,30.01,29.89,10,9,2,26,14,34,0.00,2,Rain-Snow,345
2013-4-19,32,28,24,23,20,18,80,71,60,30.08,29.96,29.87,10,10,10,29,18,38,0.00,0,,347
2013-4-20,33,24,15,25,18,14,93,71,55,30.21,30.16,30.09,10,10,10,17,8,17,0.00,1,,223
2013-4-21,39,36,30,36,29,25,100,86,70,30.13,30.01,29.93,10,8,0,24,17,33,0.00,5,Snow,228
2013-4-22,33,28,23,25,22,18,86,74,60,30.36,30.30,30.14,10,10,10,18,13,24,0.00,1,,328
2013-4-23,37,28,19,27,22,16,93,77,60,30.33,30.16,30.00,10,10,9,12,8,,0.00,0,,263
2013-4-24,39,31,23,32,28,23,100,86,75,30.02,29.91,29.84,10,10,8,20,9,24,0.00,1,,258
2013-4-25,42,32,23,36,28,19,93,80,61,30.08,29.99,29.90,10,10,9,25,11,31,0.00,1,,213
2013-4-26,53,42,30,45,37,30,100,81,54,30.03,29.96,29.86,10,10,5,15,8,,0.00,0,,207
2013-4-27,60,50,39,48,42,36,100,72,55,29.98,29.80,29.64,10,10,10,21,11,26,0.00,1,,202
2013-4-28,57,47,37,46,38,30,100,66,44,29.86,29.68,29.55,10,10,9,22,9,26,0.00,0,,279
2013-4-29,59,44,28,48,37,28,100,79,45,29.87,29.69,29.48,10,10,5,24,9,26,0.00,1,Rain,166
2013-4-30,48,40,30,48,38,23,100,86,69,30.02,29.59,29.38,10,8,0,37,14,43,0.00,7,Rain,267